Regional Weather Roundup
Issued by NWS

Home | Current Version | Previous Version | Text Only | Print | Product List | Glossary On
Versions: 1 2 3 4 5 6 7 8 9 10 11 12 13 14 15 16 17 18 19 20 21 22 23 24 25 26 27 28 29 30 31 32 33 34 35 36 37 38 39 40 41 42 43 44 45 46 47 48 49 50
000
ASUS44 KLIX 192013
RWRLA
LOUISIANA WEATHER ROUNDUP
NATIONAL WEATHER SERVICE NEW ORLEANS LA
200 PM CST SUN FEB 19 2017

NOTE: "FAIR" INDICATES FEW OR NO CLOUDS BELOW 12,000 FEET WITH NO
      SIGNIFICANT WEATHER AND/OR OBSTRUCTIONS TO VISIBILITY.
      SKY/WX - SKY CONDITION AND SIGNIFICANT WEATHER.
      TMP - AIR TEMPERATURE.    DP   - DEWPOINT TEMPERATURE.
      RH  - RELATIVE HUMIDITY.  PRES - PRESSURE.
      HX  - HEAT INDEX.         WCI  - WIND CHILL INDEX.

*  THESE STATIONS ARE NOT NWS OR FAA STATIONS AND ARE NOT UNDER
   NWS QUALITY CONTROL.

LAZ040-048-061>063-065-066-069-192100-
SOUTHEAST LOUISIANA

CITY           SKY/WX    TMP DP  RH WIND       PRES   REMARKS
N.O. AUDUBON   NOT AVBL
N.O. INTL ARPT PTSUNNY   78  66  66 N6        30.03F
N.O. LAKEFRONT SUNNY     76  65  68 E8        30.05F
N.O. DOWNTOWN*   N/A     76  65  68 VRB5      30.05S
RESERVE*       FAIR      75  66  73 NE6       30.04F
SLIDELL        SUNNY     80  53  39 MISG      30.04F
BATON ROUGE    SUNNY     76  63  64 E9        30.03F
BOOTHVILLE     CLOUDY    70  67  90 E8        30.06S
BELLE CHASSE   PTSUNNY   77  66  68 SE9       30.04S
BOGALUSA*      FAIR      83  49  30 S3        30.05F
GALLIANO*      CLOUDY    71  65  81 E7        30.05S
NEW ROADS*     FAIR      71  63  76 CALM      30.03F
GONZALES*      FAIR      71  64  79 SE7       30.03F
HAMMOND*       SUNNY     81  45  28 SE9       30.04F
HOUMA*         CLOUDY    73  70  88 SE10      30.04S HAZE
PORT FOURCHON* CLOUDY    70  68  94 E10       30.04S FOG

$$

LAZ041-044-053-054-192100-
SOUTHWEST LOUISIANA

CITY           SKY/WX    TMP DP  RH WIND       PRES   REMARKS
LAKE CHARLES   CLOUDY    76  68  76 SE13      29.97F
LAFAYETTE      MOSUNNY   79  68  69 SE6       30.01F
PATTERSON      PTSUNNY   79  70  74 E10       30.02F
SALT POINT       N/A     77  69  76 SE10G20   30.00F
NEW IBERIA     PTSUNNY   78  67  68 SE10      30.02S
CHENAULT AIRPK CLOUDY    75  68  78 E8        29.98F

$$

LAZ027-028-192100-
CENTRAL LOUISIANA

CITY           SKY/WX    TMP DP  RH WIND       PRES   REMARKS
FORT POLK      MOSUNNY   77  65  65 SE10      29.96F
ALEXANDRIA INT MOSUNNY   73  62  68 E12       29.98F
ALEXANDRIA     SUNNY     77  62  59 SE10      30.00F

$$

LAZ001-002-192100-
NORTHWEST LOUISIANA

CITY           SKY/WX    TMP DP  RH WIND       PRES   REMARKS
SHREVEPORT     PTSUNNY   76  61  59 SE10      29.95F
BARKSDALE AFB  SUNNY     75  59  55 S10       29.96F
DTN SHREVEPORT SUNNY     74  60  61 SE9       29.96F

$$

LAZ014-016-192100-
NORTHEAST LOUISIANA

CITY           SKY/WX    TMP DP  RH WIND       PRES   REMARKS
MONROE         SUNNY     78  55  44 S8        30.03F
TALLULAH       SUNNY     82  50  32 E10       30.02F

$$




USA.gov is the U.S. government's official web portal to all federal, state and local government web resources and services.